Flag for Slovakia Weather past 2 weeks in Košice, Slovakia

Now
82 °F

Passing clouds.


Feels Like: 83 °F
Forecast: 65 / 90 °F
Wind: 13 mph from Southwest

Location: Kosice - Barca

Current Time: Aug 28, 2015 at 12:10:55 PM

Latest Report: Aug 28, 2015 at 11:30 AM


Visibility: N/A

Pressure: 30.09 "Hg

Humidity: 48%

Dew point: 61 °F

Location of KošiceLocation

Historic Weather in Košice — Graph

°F

Košice temperature yesterday

Maximum temperature yesterday: 84 °F (at 2:30 PM)
Minimum temperature yesterday: 59 °F (at 3:00 AM)
Average temperature yesterday: 72 °F

Past Weeks' High & Low Weather Summary

 TemperatureHumidityPressure
High93 °F (Aug 15, 3:00 PM)100% (Aug 18, 2:00 AM)30.24 "Hg (Aug 18, 2:00 AM)
Low52 °F (Aug 21, 4:00 AM)28% (Aug 15, 3:00 PM)29.74 "Hg (Aug 17, 6:00 AM)
Average71 °F61%30.00 "Hg
* Reported Aug 13 11:00 AM — Aug 28 11:00 AM, Košice, Weather by CustomWeather, © 2015

Note: Actual official high and low records may vary slightly from our data, if they occured in-between our weather recording intervals... More about our weather records

Advertising

Košice weather history for previous 24 hours

 ConditionsComfort  
Time TempWeatherWind HumidityBarometerVisibility
11:00 AM
Fri, Aug 28
82 °FPassing clouds.12 mph51%30.09 "HgN/A
10:30 AM81 °FPassing clouds.8 mph54%30.09 "HgN/A
10:00 AM77 °FPassing clouds.6 mph61%30.09 "HgN/A
9:30 AM75 °FSunny.8 mph65%30.09 "Hg10 mi
9:00 AM73 °FPassing clouds.5 mph69%30.09 "HgN/A
8:30 AM72 °FPassing clouds.3 mph73%30.09 "HgN/A
8:00 AM70 °FSunny.1 mph78%30.07 "Hg10 mi
7:30 AM66 °FClear.1 mph83%30.07 "Hg5 mi
7:00 AM63 °FClear.2 mph88%30.07 "Hg6 mi
6:30 AM61 °FClear.3 mph94%30.07 "Hg5 mi
6:00 AM59 °FClear.2 mph94%30.07 "Hg5 mi
5:00 AM63 °FClear.1 mph88%30.07 "Hg10 mi
4:30 AM63 °FPassing clouds.3 mph88%30.07 "HgN/A
4:00 AM63 °FClear.3 mph88%30.07 "Hg10 mi
3:30 AM63 °FClear.1 mph88%30.07 "Hg10 mi
3:00 AM61 °FClear.1 mph88%30.07 "Hg10 mi
2:30 AM64 °FClear.2 mph83%30.07 "Hg10 mi
2:00 AM64 °FClear.1 mph83%30.07 "Hg10 mi
1:00 AM66 °FClear.1 mph78%30.07 "Hg10 mi
12:00 AM66 °FClear.3 mph83%30.07 "Hg10 mi
11:30 PM
Thu, Aug 27
66 °FClear.3 mph83%30.07 "Hg10 mi
11:00 PM68 °FClear.2 mph78%30.07 "Hg10 mi
10:30 PM70 °FClear.3 mph73%30.07 "Hg10 mi
10:00 PM70 °FClear.6 mph73%30.07 "Hg10 mi
9:30 PM72 °FClear.6 mph69%30.07 "Hg10 mi
9:00 PM73 °FClear.7 mph65%30.07 "Hg10 mi
8:30 PM75 °FClear.8 mph61%30.07 "Hg10 mi
8:00 PM77 °FSunny.8 mph57%30.07 "Hg10 mi
7:30 PM77 °FSunny.9 mph57%30.07 "Hg10 mi
7:00 PM79 °FSunny.9 mph54%30.07 "Hg10 mi
6:30 PM81 °FPassing clouds.9 mph51%30.07 "HgN/A
6:00 PM82 °FSunny.12 mph45%30.07 "Hg10 mi
5:30 PM84 °FSunny.10 mph43%30.07 "Hg10 mi
5:00 PM84 °FPassing clouds.9 mph43%30.07 "HgN/A
4:30 PM84 °FSunny.12 mph43%30.07 "Hg10 mi
4:00 PM82 °FPassing clouds.12 mph45%30.07 "HgN/A
3:30 PM82 °FPassing clouds.13 mph42%30.07 "HgN/A
3:00 PM84 °FPassing clouds.12 mph43%30.07 "HgN/A
2:30 PM84 °FPassing clouds.8 mph43%30.09 "HgN/A
2:00 PM82 °FPassing clouds.9 mph42%30.09 "HgN/A
1:30 PM82 °FSunny.12 mph42%30.09 "Hg10 mi
1:00 PM81 °FPassing clouds.12 mph45%30.09 "HgN/A
12:30 PM81 °FPassing clouds.10 mph45%30.12 "HgN/A
12:00 PM81 °FPassing clouds.7 mph48%30.12 "HgN/A
Weather by CustomWeather, © 2015

See weather overviewHow to use our weather pages